Theta_e
323 323 324 324 325 325 325 325 324 323 323 322 323 324 324 324 325 323 314 319 325 332 329 322 321 320 316 315 317 311 301 298 301 302 303 307 305 307 309 311 310 313 312 317 327
322 323 323 324 324 324 324 324 324 323 323 323 322 324 324 323 318 313 325 331 333 332 320 316 314 316 308 310 313 306 299 301 307 307 305 307 305 305 304 305 306 311 320 324 325
321 321 322 323 324 324 324 324 323 323 323 323 323 322 323 321 308 307 326 330 333 329 321 320 318 316 306 307 311 307 301 306 307 308 308 307 306 309 304 302 305 307 316 322 321
319 320 321 322 323 324 324 323 323 323 323 323 323 322 322 315 284 312 327 330 330 324 319 315 314 309 304 302 309 303 309 309 310 309 308 306 310 308 308 306 311 311 317 323 322
317 318 319 321 321 323 323 323 323 323 322 322 322 323 315 303 302 315 328 330 327 320 314 313 310 309 302 303 305 304 306 309 310 309 307 310 307 308 309 312 315 313 317 321 323
316 317 318 319 320 321 322 322 322 322 322 322 322 322 306 294 311 314 323 323 318 316 313 314 311 311 307 305 302 303 307 306 307 307 308 308 307 309 309 312 312 314 313 318 321
314 315 316 317 319 320 321 321 322 321 321 322 321 315 305 298 306 307 320 320 319 316 311 313 313 309 308 304 308 306 300 302 301 304 303 308 303 305 309 311 311 311 312 311 318
312 312 314 316 317 318 319 321 321 321 321 321 320 310 298 310 310 307 309 315 319 319 316 315 314 309 306 307 305 300 298 293 299 303 304 302 293 303 308 307 306 306 307 310 310
311 311 313 315 315 316 318 319 320 320 321 320 312 306 298 312 304 307 306 310 315 316 316 318 314 306 305 298 294 294 287 291 296 302 301 300 294 301 306 304 304 304 304 306 310
309 310 310 313 314 316 317 318 319 319 317 315 311 300 302 298 303 305 306 307 310 309 309 308 306 299 297 297 286 288 289 291 292 297 299 297 296 300 302 303 302 302 302 304 306
308 308 309 311 314 315 314 309 304 303 306 299 301 300 299 302 305 301 305 306 309 304 296 302 298 293 295 298 296 294 290 291 292 298 295 294 295 298 300 299 300 303 303 304 305
307 308 309 312 314 315 309 301 303 305 297 303 302 302 302 302 295 298 304 300 300 296 300 298 293 296 297 299 296 294 291 289 293 296 295 294 294 296 297 299 300 303 301 302 303
307 307 307 310 311 310 303 302 308 309 295 297 301 300 301 301 295 295 300 299 297 296 297 291 292 299 297 295 295 294 292 290 290 293 295 293 291 293 297 298 300 301 302 302 302
306 305 305 309 303 303 301 306 309 308 287 290 295 299 301 301 293 300 301 300 298 293 296 294 297 296 295 294 296 290 297 294 293 291 285 292 283 289 293 296 298 299 300 301 302
306 305 305 307 300 298 302 307 306 303 276 290 294 305 301 295 294 294 301 299 293 292 293 290 292 294 294 294 297 292 297 294 292 290 287 287 285 288 292 292 295 297 300 301 301
305 304 306 303 299 300 307 308 303 283 275 286 294 292 292 294 293 294 295 299 298 293 295 292 295 295 294 297 298 298 294 293 291 289 284 289 286 287 291 292 295 298 299 300 300
304 305 304 303 293 302 303 300 283 277 283 283 287 291 290 289 291 291 289 289 287 284 285 290 289 293 296 293 296 297 292 284 282 282 281 287 286 290 293 294 295 297 298 297 299
304 304 303 302 300 304 297 289 277 282 283 289 290 290 286 290 289 290 287 286 291 287 283 283 281 290 295 293 291 293 292 282 273 276 280 286 284 289 296 300 301 301 298 298 298
303 298 297 299 301 300 287 275 279 283 286 287 289 285 285 288 288 288 286 285 289 290 281 282 282 290 294 294 294 290 289 291 282 276 278 281 287 292 295 295 294 296 296 296 296
295 293 293 300 302 295 283 278 283 288 290 290 284 287 282 285 285 284 284 288 288 292 289 285 280 288 291 296 295 292 294 286 284 272 270 279 280 285 287 291 293 293 293 295 296
293 286 292 301 299 287 278 280 284 290 292 288 284 285 284 285 285 284 284 287 291 291 291 286 283 282 289 289 289 291 288 289 287 283 277 275 280 289 291 292 292 293 294 295 296
287 281 293 299 284 284 280 283 287 289 293 290 289 286 285 286 283 284 283 286 293 292 287 288 283 279 284 291 292 293 289 289 283 279 282 281 281 292 292 294 291 291 295 294 294
285 285 296 295 278 280 282 283 286 286 290 289 288 288 288 286 282 286 285 291 293 291 289 289 280 270 277 284 288 288 289 291 288 283 282 278 282 292 292 290 290 291 289 291 291
285 280 284 289 286 280 281 282 282 288 290 290 288 290 288 286 286 285 285 290 293 293 295 294 283 281 277 280 286 285 288 290 289 279 282 283 284 287 289 288 291 289 290 289 291
285 282 284 280 282 281 284 284 282 283 285 289 287 288 286 284 284 283 287 288 291 294 293 289 275 280 281 282 284 284 286 287 287 288 283 285 285 290 291 289 289 288 289 290 291
283 282 284 281 279 282 284 283 283 284 284 285 286 288 288 284 286 283 286 286 286 290 290 288 277 282 276 282 282 278 282 284 286 287 286 284 284 290 288 289 287 288 289 288 287
285 289 286 285 283 280 281 283 284 285 286 289 289 288 286 288 289 291 291 292 290 289 288 286 280 275 275 280 279 275 280 281 282 284 285 282 289 293 286 287 285 285 285 285 286
Wind_Speed
17 17 18 18 17 16 16 15 14 13 11 9 7 6 5 5 5 3 6 7 4 4 5 6 7 6 4 2 0 3 4 4 5 5 2 5 2 3 1 5 1 1 4 4 13
19 18 17 18 19 18 17 16 16 14 12 11 9 6 5 5 2 8 6 9 7 3 1 1 5 7 4 2 1 4 4 9 6 7 5 3 2 2 1 2 0 2 4 5 11
20 18 18 18 19 20 18 17 16 15 14 13 10 8 7 2 4 9 16 19 13 7 4 1 3 2 3 1 3 4 6 5 2 3 0 3 1 1 2 1 2 1 4 4 5
21 20 19 18 18 20 20 19 17 16 15 14 11 9 7 2 9 2 4 20 19 7 5 1 2 2 4 5 4 3 6 4 2 2 2 2 3 3 4 5 3 5 8 8 9
22 21 20 19 18 18 20 19 19 18 16 14 14 11 5 6 9 6 6 11 10 8 8 6 5 4 6 4 2 4 4 5 4 4 4 4 5 5 6 8 8 2 8 11 11
21 20 20 18 18 18 19 20 19 19 18 16 15 14 3 13 7 7 1 8 7 6 7 6 7 5 3 5 7 3 6 6 4 4 3 5 5 5 7 5 5 7 7 10 11
18 19 19 18 18 17 18 20 20 19 19 18 17 9 10 13 4 4 4 6 7 7 7 5 2 2 1 3 6 4 4 7 4 4 5 4 6 10 6 5 8 8 10 8 12
21 18 20 21 19 18 16 18 21 20 19 18 16 6 9 8 18 9 6 3 6 5 6 5 4 2 3 4 6 5 3 5 3 6 5 6 11 7 10 6 10 9 8 11 9
21 20 19 23 21 18 17 17 19 21 21 19 8 8 8 6 6 8 6 5 7 5 6 3 4 5 2 3 2 3 3 6 6 6 5 8 7 8 11 9 10 9 9 9 9
21 20 21 24 22 20 16 15 17 19 16 10 3 9 6 7 6 6 7 8 6 7 4 5 4 5 5 8 11 6 6 6 10 6 7 9 16 11 8 7 10 10 9 8 8
22 18 24 27 25 23 16 5 6 11 19 14 10 4 1 6 8 7 8 5 6 5 9 8 12 25 22 12 8 10 5 10 4 5 4 7 13 14 11 8 11 14 10 9 10
23 20 19 28 24 24 13 12 19 2 13 20 8 20 3 4 5 5 13 9 7 19 8 8 25 9 9 8 7 9 10 8 3 6 8 11 19 12 10 13 9 14 9 10 7
21 20 16 23 17 15 19 24 7 3 4 12 8 17 20 5 6 14 18 7 12 20 24 12 3 10 14 13 16 16 21 6 5 2 4 4 11 7 8 7 7 7 8 7 11
21 14 19 24 12 10 16 12 9 6 9 13 17 9 17 1 5 8 12 10 6 23 19 8 11 19 12 16 16 21 9 8 7 5 7 3 9 5 5 11 8 6 9 11 9
21 18 22 28 7 12 13 12 12 5 15 12 15 10 15 13 9 10 10 3 11 9 9 11 13 10 15 21 15 13 12 11 5 6 2 5 3 7 4 8 9 8 11 13 10
20 20 26 15 2 2 9 16 8 14 12 14 12 16 15 22 5 7 12 2 1 6 12 10 3 10 8 7 16 8 6 3 3 5 11 19 7 11 11 7 6 7 10 8 9
19 19 16 9 10 7 1 11 17 15 9 8 16 21 20 14 16 16 18 20 17 10 15 12 6 3 6 8 7 9 13 5 9 9 10 7 8 19 10 6 7 11 11 2 8
17 17 15 8 4 8 4 15 22 32 5 6 12 25 25 23 15 19 21 21 14 7 8 14 17 11 7 8 10 22 16 7 9 7 6 7 8 11 11 14 18 13 5 4 6
14 2 4 7 9 7 4 7 13 16 9 9 17 25 12 19 12 17 22 29 27 19 10 15 13 6 5 4 10 6 17 10 5 3 3 4 6 11 8 8 3 7 9 7 5
3 3 9 8 10 8 6 9 6 4 18 14 9 17 15 21 16 13 21 21 20 21 2 5 6 6 23 4 6 10 9 8 3 4 4 4 3 8 1 6 7 6 6 6 4
3 2 4 11 8 4 10 4 7 12 24 16 5 8 8 21 14 21 25 8 21 24 10 1 4 1 12 14 14 8 7 5 5 5 6 3 8 8 8 7 10 6 5 6 5
4 7 5 12 10 4 6 6 4 20 8 7 6 5 13 19 7 15 15 13 22 21 21 7 5 4 10 10 8 12 10 7 7 7 3 2 7 6 9 11 8 7 6 3 2
6 1 7 13 12 6 1 1 4 9 19 10 7 4 6 18 8 15 6 13 21 22 23 13 4 4 4 2 4 14 9 9 5 3 10 7 11 7 7 7 5 9 1 2 3
4 4 4 10 4 11 10 9 8 10 6 6 10 8 15 14 3 14 9 9 19 22 16 19 5 10 14 6 8 10 14 12 13 6 6 12 9 3 4 4 5 2 3 2 3
2 3 2 9 10 8 5 13 13 12 5 5 3 22 15 9 4 7 11 5 9 16 16 11 7 4 4 3 4 6 12 14 17 20 12 15 20 19 8 2 5 0 3 7 7
6 5 3 7 4 7 3 11 25 7 5 6 12 20 15 18 16 17 15 10 15 12 20 7 4 5 3 1 1 1 7 12 15 9 12 4 19 6 5 7 1 2 5 4 9
3 1 6 7 7 5 4 3 10 6 5 7 13 9 7 18 10 14 10 12 10 18 21 13 7 4 9 2 5 9 11 8 6 6 10 13 24 15 2 6 8 12 13 11 11
Wind_Direction
238 240 237 237 230 225 224 223 216 207 209 220 219 238 275 301 304 238 239 220 208 288 316 327 329 308 341 305 155 111 76 185 208 163 318 311 318 345 189 119 122 84 143 247 157
240 236 237 237 233 228 221 219 218 208 205 210 213 215 246 295 276 238 229 241 231 207 354 327 300 337 321 277 270 110 151 214 204 161 165 221 235 267 186 89 314 35 5 81 143
236 237 237 237 232 228 221 215 215 208 204 201 204 210 216 220 312 250 194 227 250 199 142 83 305 240 246 306 224 190 201 206 260 143 118 127 94 209 20 271 200 187 192 160 155
236 233 232 232 234 227 225 213 207 205 201 193 195 197 198 192 227 258 248 209 208 180 128 172 239 205 198 220 236 182 243 195 209 141 154 208 163 301 155 208 247 266 190 176 182
246 235 228 225 229 230 225 218 205 203 201 190 186 184 154 221 237 287 307 203 164 158 166 172 176 173 195 205 260 221 243 242 221 182 182 168 217 213 239 248 267 164 155 196 206
250 243 234 222 220 227 224 219 208 201 199 192 189 178 173 231 236 248 255 124 149 140 169 160 197 205 246 219 190 242 216 253 274 245 226 198 249 156 242 193 274 301 188 206 210
258 248 237 222 216 219 225 217 211 200 197 196 191 173 231 221 263 22 211 173 167 159 164 188 172 192 175 290 234 243 286 285 242 214 227 170 280 234 226 252 261 259 270 213 212
251 264 238 227 214 212 218 221 210 199 194 194 188 173 233 210 242 285 315 239 162 167 172 187 145 324 201 314 351 177 174 243 264 189 247 127 261 243 257 209 249 249 261 272 225
252 247 250 234 213 206 206 220 211 200 191 190 175 191 236 187 191 220 190 232 163 166 184 134 126 189 201 131 321 246 192 211 292 214 195 188 266 239 233 225 246 259 243 258 268
238 242 241 244 217 197 196 211 214 202 187 176 177 178 255 197 149 158 170 236 163 136 116 162 185 188 186 185 209 204 200 221 212 233 209 244 257 261 268 248 237 246 251 256 260
237 241 234 240 212 198 185 176 194 211 184 190 180 187 344 175 138 183 163 169 158 165 168 183 189 211 201 207 214 198 225 216 207 244 252 244 259 262 263 246 251 254 249 257 254
233 229 238 222 208 198 173 197 210 117 194 199 177 199 87 123 131 185 142 172 171 191 134 168 218 188 171 182 192 210 221 223 254 230 195 257 264 260 249 255 222 238 243 245 260
223 222 247 218 205 198 195 206 126 33 172 205 178 187 194 148 189 193 169 176 182 193 194 195 222 165 173 190 203 220 223 167 191 304 263 284 280 240 253 245 235 243 249 254 242
219 218 255 217 207 190 204 184 149 107 219 178 210 200 203 159 220 175 189 170 172 200 194 233 220 191 184 203 195 222 191 178 193 180 244 142 278 259 250 264 261 253 268 268 260
210 199 244 202 134 188 187 153 120 136 239 143 171 174 170 172 133 211 162 148 190 182 166 207 171 184 189 211 170 226 176 199 174 209 146 250 271 282 305 270 274 275 262 267 264
216 203 213 197 95 205 162 141 135 220 232 159 152 156 158 183 200 128 168 72 117 183 204 226 191 172 207 195 194 147 104 105 139 165 230 236 190 257 250 214 232 243 256 274 271
213 202 201 166 202 183 130 155 198 208 141 157 165 166 170 170 175 152 177 188 190 181 207 214 224 215 164 160 166 186 153 183 215 222 240 168 181 245 249 222 226 235 258 346 320
210 194 206 202 162 140 175 200 221 204 181 137 173 165 179 160 182 165 168 187 210 201 180 195 208 195 187 188 188 199 192 174 192 197 217 139 211 245 238 239 254 253 269 52 70
201 190 186 199 167 149 194 254 204 179 149 148 145 166 166 167 132 162 180 189 195 192 169 187 218 186 183 177 154 186 208 189 96 15 85 205 284 307 247 269 108 101 103 123 88
134 161 222 166 164 163 204 236 247 180 143 164 165 174 172 166 158 169 172 200 196 196 205 199 183 196 205 207 197 178 160 198 187 163 229 224 247 236 283 151 148 138 131 110 82
117 182 212 155 151 186 237 210 205 250 174 159 164 142 162 169 175 175 181 181 189 188 187 207 117 274 152 199 184 160 190 185 154 175 185 192 240 215 198 175 160 161 123 103 70
120 207 197 143 189 184 191 180 33 187 174 125 132 104 159 167 169 180 181 188 187 176 190 199 137 166 195 219 189 210 191 170 187 206 209 121 267 221 218 154 142 132 128 152 164
161 199 188 158 199 179 296 188 216 276 160 149 148 140 168 162 145 180 149 194 177 177 180 188 203 80 13 24 273 211 211 188 106 68 200 183 246 158 94 113 89 129 111 260 268
158 174 232 178 196 178 176 194 205 200 239 125 156 131 129 164 75 180 155 178 181 192 172 167 173 192 201 201 139 191 195 192 192 201 183 218 263 251 154 168 145 182 283 333 346
132 230 289 159 175 177 178 178 193 253 252 85 99 162 151 151 104 149 150 124 179 188 192 177 169 135 80 97 152 191 199 194 206 219 195 237 240 250 227 298 141 251 358 347 353
149 160 133 149 117 111 121 200 189 243 155 159 150 169 149 158 178 170 168 180 169 181 186 199 227 124 182 215 169 227 220 203 219 216 245 283 264 223 103 132 156 231 291 352 15
188 71 95 141 148 116 207 185 189 171 9 120 133 151 152 180 163 175 157 172 152 178 183 179 124 85 220 134 67 280 203 188 192 191 207 230 245 273 135 136 27 42 46 30 18